Terminal Aerodrome Forecast
Issued by NWS Twin Cities, MN

Home | Current Version | Previous Version | Graphics & Text | Print | Product List | Glossary On
Versions: 1 2 3 4 5 6 7 8 9 10 11 12 13 14 15 16 17 18 19 20 21 22 23 24 25 26
000
FTUS43 KMPX 172000 AAA
TAFMSP
TAF AMD
KMSP 172046Z 1721/1824 VRB03KT P6SM SCT060
      TEMPO 1721/1723 BKN060
     FM180100 05004KT P6SM FEW060
     FM181100 08006KT P6SM SCT010 SCT250
     FM181500 13008KT P6SM SCT250=

USA.gov is the U.S. government's official web portal to all federal, state and local government web resources and services.